Back to catalog

IRIDIUM 33 DEB

LostPO
NORAD 35907·DEBRIS·🇺🇸 United States

Launched Sep 14, 1997 from Baikonur Cosmodrome

Loading…

Next Passes (next 24 hours)

TLE

StaleSource: Space-Track

Epoch: Oct 31, 2009, 22:24 UTC

1 35907U 97051TQ  09304.93338152  .00001880  00000-0  10320-2 0  9991
2 35907  86.3762  15.3133 0153302 320.4253  42.6240 14.05561339 13433

Track IRIDIUM 33 DEB in real time with AllMySat

Download on the App Store